カタログに戻る

STARLINK-34326

運用中通信VLEO
NORAD 64221·PAYLOAD·🇺🇸 United States

打ち上げ May 31, 2025 から Vandenberg Space Force Base

Loading…

次のパス (今後24時間)

TLE

最新Source: CelesTrak SupGP

元期: Sep 15, 2026, 03:00 UTC

1 64221C 25117U   26258.12548611 -.00044830  00000+0 -13243-2 0  2585
2 64221  53.1582 236.7088 0001388  92.4687 183.0454 15.34416943    17

AllMySatでSTARLINK-34326をリアルタイム追跡

Download on the App Store